Miscellaneous Local Product
Issued by NWS North Platte, NE

Home | Current Version | Previous Version | Graphics & Text | Print | Product List | Glossary On
Versions: 1 2 3 4 5 6 7 8 9 10 11 12 13 14 15 16 17 18 19 20 21 22 23 24 25 26 27 28 29 30 31 32 33 34 35 36 37 38 39 40 41 42 43 44 45 46 47 48 49 50
000
AXUS43 KLBF 020510
MISLBF


WESTERN AND NORTH CENTRAL NEBRASKA HOURLY WEATHER ROUNDUP
NATIONAL WEATHER SERVICE NORTH PLATTE NE
1100 PM CST SUN MAR 01 2015

***STATIONS NOT REPORTING VARIABLES SUCH AS SKY/WEATHER OR
PRESSURE ARE PROVIDED BY THE NEBRASKA DEPARTMENT OF
ROADS...RAWS...AND APRS NETWORKS...AND ARE NOT UNDER
NATIONAL WEATHER SERVICE QUALITY CONTROL***

...OBSERVATIONS IN AND NEAR THE EASTERN PANHANDLE OF NEBRASKA...

CITY           SKY/WX    TMP DP  RH WIND       PRES   REMARKS
PINE RIDGE     MOCLDY    15   9  76 CALM      30.31S
CHADRON        PTCLDY    19  11  70 E5        30.30S WCI  12
ALLIANCE       MOCLDY    20  14  77 SE5       30.28R WCI  13
SIDNEY         PTCLDY    24  18  77 SW7       30.29R WCI  16
WHITECLAY        N/A     17   8  67 CALM        N/A
CRESCENT LAKE    N/A     24  11  56 SE3         N/A
LISCO            N/A     28  17  65 E3          N/A
BIG SPRINGS      N/A     25  16  67 CALM        N/A
LEWELLEN         N/A     16   6  67 CALM        N/A
$$

...OBSERVATIONS IN NORTH CENTRAL NEBRASKA...

CITY           SKY/WX    TMP DP  RH WIND       PRES   REMARKS
VALENTINE      MOCLDY    15   8  73 SW5       30.38R WCI   8
THEDFORD       PTCLDY    19   8  64 CALM      30.37S
AINSWORTH      MOCLDY    18   9  68 CALM      30.38S
O`NEILL        MOCLDY    20   9  63 CALM      30.42R
ORD            PTCLDY    15   5  64 CALM      30.41R
BROKEN BOW     PTCLDY    18   8  65 CALM      30.39R
BROWNLEE         N/A     21   5  49 E3          N/A
SPRINGVIEW       N/A     15   7  69 CALM        N/A
BREWSTER         N/A     18  11  74 CALM        N/A
ROSE             N/A     30  16  55 CALM        N/A
NEWPORT          N/A     22  20  91 CALM        N/A
SARGENT          N/A     20  13  72 CALM        N/A
COMSTOCK         N/A     28  14  54 CALM        N/A
CHAMBERS         N/A     17   0  47 CALM        N/A
EWING            N/A     18   8  64 CALM        N/A
$$

...OBSERVATIONS IN SOUTHWEST NEBRASKA AND FAR NORTHEAST COLORADO...

CITY           SKY/WX    TMP DP  RH WIND       PRES   REMARKS
WRAY           CLOUDY    32  17  54 SE6       30.33S WCI  26
IMPERIAL         N/A     24  14  65 CALM      30.35R
OGALLALA       MOCLDY    20  15  81 CALM      30.33S
NORTH PLATTE   PTCLDY    19  11  70 SE6       30.37S WCI  11
MCCOOK         CLOUDY    31  14  49 S3        30.38R
LEXINGTON      PTCLDY    23  11  60 E3        30.40R
PAXTON           N/A     21  12  68 CALM        N/A
BRADY            N/A     21  10  63 CALM        N/A
GOTHENBURG       N/A     23   7  51 CALM        N/A
CALLAWAY         N/A     24  13  61 E5          N/A  WCI  18
$$

...NORTH PLATTE AREA...

CITY           SKY/WX    TMP DP  RH WIND       PRES   REMARKS
AIRPORT        PTCLDY    19  11  70 SE6       30.37S WCI  11
DOWNTOWN         N/A     23  11  61 CALM        N/A
$$

...SOME WEATHER OBSERVATIONS FROM AROUND THE REGION...

CITY           SKY/WX    TMP DP  RH WIND       PRES   REMARKS
DENVER         CLOUDY    24  18  77 SE12      30.21S WCI  13
LARAMIE        PTCLDY    14  11  87 S22       30.06F WCI  -4
CHEYENNE       CLOUDY    20  13  74 S12       30.16F WCI   8
SCOTTSBLUFF    CLOUDY    25  12  58 E7        30.27F WCI  17
RAPID CITY     PTCLDY    13   6  74 CALM      30.30F
PIERRE         PTCLDY    14  11  87 E3        30.40S
WINNER         FAIR      20   4  50 S5        30.39S WCI  13
SIOUX FALLS    CLEAR     15  11  83 NW6       30.43R WCI   6
OMAHA          PTCLDY    23  17  78 N5        30.48R WCI  17
GRAND ISLAND   PTCLDY    26  11  52 NE3       30.44R
KANSAS CITY    PTCLDY    26  19  74 SW3       30.48R
WICHITA        PTCLDY    18  15  88 SW3       30.47R
HAYS           MOCLDY    25  14  63 W5        30.44R WCI  19
LIBERAL        CLOUDY    28  19  69 CALM      30.42R
GOODLAND       CLOUDY    30  20  66 S9        30.35R WCI  22
$$



USA.gov is the U.S. government's official web portal to all federal, state and local government web resources and services.